Location: Ewell
(51.1500°N, 1.2667°E)
Time: 22:01:17
(UTC+00:00)

Daily predictions for brighter satellites

Satellite Brightness Start Highest point End
(mag) Time Altitude Azimuth Time Altitude Azimuth Time Altitude Azimuth
Cosmos 2227 Rocket 2.3 16:19:08 10° SSW 16:24:48 87° WNW 16:30:30 10° NNE
Cosmos 44 3.7 16:20:17 10° NW 16:25:44 82° SW 16:30:56 10° SE
Cosmos 1140 Rocket 4.0 16:21:36 10° NNW 16:26:25 36° NE 16:31:10 10° ESE
SAR-Lupe-2 3.7 16:27:11 10° SSE 16:30:40 53° ENE 16:34:11 10° N
Spot 4 Rocket 4.4 16:28:11 10° S 16:33:18 71° WSW 16:38:28 10° NNW
Cosmos 1666 3.0 16:30:01 10° N 16:33:19 36° ENE 16:36:37 10° SE
ARGOS 3.5 16:29:06 10° S 16:34:31 72° WSW 16:39:58 10° NNW
Cosmos 1603 4.2 16:30:56 10° NNW 16:36:18 40° NE 16:41:35 10° ESE
PSLV R/B 3.9 16:35:02 10° S 16:39:17 72° WSW 16:43:36 10° NNW
Cosmos 1076 Rocket 3.5 16:36:16 10° N 16:40:38 69° ENE 16:44:57 10° SSE
CZ-2C R/B 4.0 16:37:24 10° N 16:42:14 37° WNW 16:46:58 10° SW
Meteor 1-31 Rocket 3.2 16:40:30 10° SE 16:43:55 37° ENE 16:47:23 10° N
Cosmos 1544 2.9 16:42:16 10° NNW 16:45:32 77° W 16:48:46 10° S
USA 306 3.4 16:43:46 10° W 16:45:47 28° SSW 16:47:40 10° SSE
Tsikada Rocket 4.5 16:41:00 10° SSW 16:47:10 65° WNW 16:53:19 10° N
SJ-7 4.3 16:44:54 10° SSE 16:48:53 76° ENE 16:52:57 10° N
SL-16 R/B 3.3 16:43:53 10° NW 16:49:22 51° WSW 16:54:50 10° S
ATLAS CENTAUR R/B 2.4 16:45:47 10° WNW 16:49:31 87° SSW 16:56:44 10° SE
Cosmos 1238 Rocket 3.7 16:46:52 10° SSW 16:50:12 40° WNW 16:53:12 10° N
Cosmos 1602 3.8 16:48:36 10° N 16:52:14 50° ENE 16:55:52 10° SSE
RESURS DK-1 3.9 16:51:22 10° N 16:54:16 18° NE 16:56:12 14° ENE
USA 305 3.0 16:50:40 10° WNW 16:54:27 67° SSW 16:58:16 10° SE
Cosmos 1607 4.1 16:50:28 10° SW 16:56:50 89° ESE 17:03:17 10° NE
Cosmos 1606 4.4 16:54:11 10° SW 16:57:27 31° WNW 17:00:45 10° N
CZ-4B R/B 3.9 16:55:17 10° SE 16:59:57 39° ENE 17:04:31 10° N
Cosmos 1943 3.1 16:54:48 10° NNW 17:00:27 72° ENE 17:06:05 10° SE
Helios 1A 4.1 16:58:42 12° NE 17:01:41 23° E 17:05:02 10° SSE
Cosmos 1782 4.3 16:59:27 10° SE 17:02:04 17° E 17:03:02 16° ENE
ATLAS 2AS CENTAUR R/B 3.0 16:55:33 10° NW 17:02:18 45° NNE 17:08:44 10° ESE
Cosmos 1812 Rocket 4.4 16:58:36 10° SSE 17:02:20 29° E 17:06:07 10° NNE
Cosmos 1500 3.3 17:00:27 10° NNW 17:03:58 71° W 17:07:29 10° S
SMAP 3.0 17:01:53 10° SSE 17:06:32 80° ENE 17:11:14 10° NNW
Helios 1B rocket 3.2 17:03:13 10° S 17:07:04 53° W 17:10:57 10° NNW
NOAA 6 4.5 17:03:08 10° SE 17:07:49 37° ENE 17:12:31 10° N
CZ-4B R/B 3.5 17:06:20 10° SSE 17:09:54 72° ENE 17:13:34 10° N
Cosmos 407 Rocket 3.5 17:06:48 10° NNW 17:11:55 58° ENE 17:16:58 10° SE
SL-16 R/B 4.2 17:07:23 10° N 17:12:39 29° NW 17:17:54 10° WSW
Cosmos 2297 Rocket 3.7 17:08:09 10° WSW 17:13:07 30° NW 17:18:07 10° NNE
Radarsat Rocket 4.2 17:08:53 10° SE 17:14:25 47° ENE 17:20:21 10° N
SOZ 4.2 17:12:17 10° WSW 17:14:27 63° SSE 17:16:20 21° E
Cosmos 405 Rocket 3.8 17:12:34 10° SSW 17:16:14 45° WNW 17:19:58 10° N
ISS -1.1 17:15:29 10° W 17:18:03 20° SW 17:20:36 10° SSE
Cosmos 2219 3.7 17:13:57 10° SW 17:19:29 57° NW 17:25:05 10° NNE
Cosmos 2251 Rocket 3.5 17:14:21 10° NNW 17:19:43 70° ENE 17:25:04 10° SSE
Cosmos 220 Rocket 4.4 17:19:25 10° NNW 17:23:29 37° ENE 17:27:28 10° SE
Cosmos 1954 Rocket 4.5 17:21:29 10° NNW 17:26:23 37° NE 17:31:13 10° ESE
Lacrosse 5 3.1 17:26:02 10° S 17:30:04 25° SE 17:31:43 21° E
COSMO-SKYMED 1 3.3 17:29:30 24° NE 17:31:12 31° E 17:35:05 10° SSE
Cosmos-2242 2.9 17:27:28 10° S 17:31:47 69° E 17:36:06 10° NNE
Lacrosse 4 Rocket 1.9 17:27:54 10° NW 17:32:13 64° WSW 17:36:25 10° SSE
Cosmos 1833 Rocket 4.0 17:28:50 10° NNW 17:33:00 20° NE 17:33:48 20° NE
Cosmos 2082 4.0 17:28:56 10° SW 17:34:31 67° WNW 17:39:45 12° NNE
Cosmos 2058 Rocket 4.2 17:30:40 10° SSW 17:34:54 43° WNW 17:39:08 10° N
Cosmos 1553 Rocket 4.5 17:32:17 10° N 17:38:06 36° ENE 17:43:49 10° SE
APEX 2.6 17:37:08 10° SSW 17:39:57 48° ESE 17:39:57 48° ESE
Meteor 1-25 Rocket 4.2 17:35:43 10° NNW 17:41:26 86° ENE 17:47:02 10° SSE
USA 234 3.6 17:37:35 23° ENE 17:41:29 47° SE 17:47:44 10° SSW
Meteor 2-2 Rocket 4.3 17:35:52 10° S 17:41:32 61° E 17:47:20 10° NNE
Cosmos 2221 3.8 17:38:56 10° SE 17:41:02 21° ESE 17:41:02 21° ESE
Cosmos 2344 3.6 17:35:14 10° SSW 17:42:31 54° ESE 17:47:05 23° ENE
Cosmos 1190 Rocket 4.0 17:38:43 10° NNW 17:44:01 63° ENE 17:49:15 10° SE
Cosmos 1812 2.5 17:41:11 10° S 17:44:52 89° WNW 17:47:41 17° N
Cosmos 1818 3.8 17:41:10 10° SSW 17:46:24 51° ESE 17:48:46 30° ENE
USA 276 2.4 17:46:00 10° WSW 17:48:03 41° S 17:48:03 41° S
Cosmos 2026 Rocket 4.1 17:42:35 10° SSE 17:48:41 56° E 17:54:52 10° NNE
Cosmos 2195 Rocket 4.4 17:49:29 10° S 17:55:46 72° E 18:02:02 10° NNE
CZ-4B R/B 4.3 18:01:43 26° NE 18:01:43 26° NE 18:05:12 10° N
Cosmos 1844 Rocket 2.9 17:55:24 10° S 18:00:39 45° ESE 18:02:02 38° ENE
Cosmos 2263 Rocket 2.9 17:55:16 10° SW 18:00:40 51° NW 18:05:03 16° NNE
Meteor 1-26 Rocket 4.4 17:56:39 10° SSE 18:01:56 46° E 18:04:18 30° NE
Cosmos 1766 Rocket 3.5 17:58:45 10° N 18:03:04 56° ENE 18:07:19 10° SSE
YAOGAN 1 3.1 18:07:03 40° NNE 18:07:03 40° NNE 18:10:14 10° N
Cosmos 1092 Rocket 3.8 18:00:03 10° S 18:06:09 74° E 18:12:18 10° NNE
Nadezhda 4 Rocket 4.3 18:00:12 10° SSW 18:06:17 66° WNW 18:12:24 10° N
Cosmos 1933 3.1 18:03:25 10° S 18:07:24 71° E 18:07:55 61° NE
Cosmos 1420 Rocket 4.2 18:02:54 10° S 18:07:53 46° ESE 18:08:28 44° E
Cosmos 2227 4.2 18:03:28 10° SSW 18:09:14 88° WNW 18:12:32 27° NNE
Cosmos 2227 Rocket 4.1 18:05:11 10° W 18:09:40 23° NW 18:14:00 11° NNE
Cosmos 2082 Rocket 4.0 18:06:43 10° N 18:09:22 16° NNE 18:09:22 16° NNE
YAOGAN 3 4.4 18:06:48 10° SSE 18:11:04 66° ENE 18:15:22 10° N
ADEOS 3.4 18:06:06 10° SSE 18:11:18 81° ENE 18:16:34 10° NNW
Meteor 1-5 Rocket 4.1 18:06:27 10° N 18:12:09 79° ENE 18:18:01 10° SSE
Cosmos 1624 Rocket 4.2 18:10:43 10° S 18:15:39 48° ESE 18:15:39 48° ESE
BREEZE-M DEB (TANK) 3.4 18:14:06 10° WSW 18:15:04 26° WSW 18:15:04 26° WSW
SKYMED 2 3.4 18:18:08 45° NNE 18:19:28 89° ESE 18:23:48 10° SSW
CZ-4B R/B 3.5 18:20:41 45° N 18:20:41 45° N 18:23:40 10° N
SL-08 R/B 3.1 18:25:44 72° E 18:25:51 73° ESE 18:30:28 10° S
Cosmos 192 4.2 18:23:13 10° SSW 18:28:06 79° ESE 18:28:35 70° NE
RESURS DK-1 2.7 18:28:31 10° NNW 18:31:56 60° NW 18:31:56 60° NW
Helios 1A 4.1 18:35:01 24° NNW 18:37:06 42° WNW 18:41:00 10° SW
Cosmos 1782 3.6 18:33:48 10° SSW 18:37:35 47° WNW 18:38:16 42° NW
Cosmos 676 Rocket 4.0 18:32:36 10° NNW 18:37:56 82° WSW 18:40:04 37° SSE
ATLAS 2AS CENTAUR R/B 2.9 18:46:44 10° NW 18:53:35 66° SW 18:56:38 33° SSE
CZ-4B DEB 4.3 18:53:03 24° S 18:56:33 75° WSW 19:02:08 10° NNW
Cosmos 1241 Rocket 4.4 18:54:39 10° SSW 19:00:35 72° SSE 19:00:35 72° SSE
ADEOS Rocket 4.2 19:09:44 27° N 19:09:44 27° N 19:12:19 10° N
COSMO-SKYMED 1 4.1 19:06:43 32° NW 19:07:22 34° WNW 19:11:17 10° SW
Cosmos 2056 Rocket 3.9 19:04:13 10° SSW 19:09:06 64° W 19:09:06 64° W
Lacrosse 5 2.8 19:07:29 10° WSW 19:10:56 45° WSW 19:10:56 45° WSW
Cosmos 1844 3.9 19:06:50 10° SW 19:12:19 69° WNW 19:12:19 69° WNW
COSMOS 2455 4.1 19:07:19 10° SSW 19:10:14 30° S 19:10:14 30° S
Timation 2 Rocket 4.0 19:09:40 10° SW 19:15:37 68° NW 19:15:41 68° NW
Cosmos 1833 Rocket 3.8 19:12:17 10° NNW 19:15:30 35° NNW 19:15:30 35° NNW
S3M 4.5 19:15:43 10° NNW 19:20:09 50° NNW 19:20:09 50° NNW
USA 234 3.2 19:24:56 77° NW 19:24:56 77° NW 19:31:20 10° WSW
Cosmos 1844 Rocket 4.0 19:39:26 10° WSW 19:43:43 37° WNW 19:43:43 37° WNW
Cosmos 2263 Rocket 4.4 19:42:32 10° WNW 19:45:58 16° NNW 19:46:45 16° NNW
Cosmos 2082 Rocket 4.5 19:50:10 10° NNW 19:51:12 15° NNW 19:51:12 15° NNW
Cosmos 2344 4.0 19:49:56 10° WSW 19:57:00 50° NNW 19:57:06 50° NNW
